Flag for Switzerland Weather past 2 weeks in Bellinzona, Ticino, Switzerland

Now
43 °F

Quite cool.


Feels Like: 43 °F
Forecast: 22 / 44 °F
Wind: 2 mph from Southwest

Location: Locarno-Magadino

Current Time: Jan 28, 2015 at 2:02:06 PM

Latest Report: Jan 28, 2015 at 1:00 PM


Visibility: N/A

Pressure: 30.04 "Hg

Humidity: 42%

Dew point: 22 °F

Location of BellinzonaLocation

Historic Weather in Bellinzona — Graph

°F

Bellinzona temperature yesterday

Maximum temperature yesterday: 52 °F (at 3:00 PM)
Minimum temperature yesterday: 27 °F (at 5:00 AM)
Average temperature yesterday: 38 °F

Past Weeks' High & Low Weather Summary

 TemperatureHumidityPressure
High54 °F (Jan 23, 3:00 PM)100% (Jan 18, 6:00 AM)30.41 "Hg (Jan 18, 6:00 AM)
Low27 °F (Jan 27, 5:00 AM)16% (Jan 24, 7:00 PM)29.80 "Hg (Jan 24, 5:00 PM)
Average38 °F74%30.04 "Hg
* Reported Jan 13 12:00 Noon — Jan 28 12:00 Noon, Bellinzona, Weather by CustomWeather, © 2014

Note: Actual official high and low records may vary slightly from our data, if they occured in-between our weather recording intervals... More about our weather records

Advertising

Bellinzona weather history for previous 24 hours

 ConditionsComfort  
Time TempWeatherWind HumidityBarometerVisibility
12:00 PM
Jan 28
42 °FQuite cool.1 mph47%30.09 "HgN/A
11:00 AM39 °FChilly.1 mph48%30.11 "HgN/A
10:00 AM34 °FChilly.1 mph67%30.14 "HgN/A
9:00 AM29 °FChilly.2 mph81%30.16 "HgN/A
8:00 AM27 °FChilly.3 mph81%30.16 "HgN/A
7:00 AM28 °FChilly.2 mph77%30.15 "HgN/A
6:00 AM27 °FChilly.2 mph78%30.13 "HgN/A
5:00 AM31 °FChilly.3 mph64%30.12 "HgN/A
4:00 AM31 °FChilly.1 mph60%30.12 "HgN/A
3:00 AM34 °FChilly.2 mph52%30.11 "HgN/A
2:00 AM34 °FChilly.1 mph54%30.11 "HgN/A
1:00 AM37 °FChilly.2 mph43%30.10 "HgN/A
12:00 AM41 °FQuite cool.3 mph35%30.10 "HgN/A
11:00 PM
Jan 27
45 °FQuite cool.10 mph27%30.09 "HgN/A
10:00 PM45 °FCool.14 mph26%30.09 "HgN/A
9:00 PM45 °FCool.17 mph26%30.08 "HgN/A
8:00 PM46 °FCool.16 mph24%30.06 "HgN/A
7:00 PM45 °FCool.15 mph26%30.04 "HgN/A
6:00 PM47 °FCool.17 mph23%30.02 "HgN/A
5:00 PM48 °FCool.18 mph20%30.00 "HgN/A
4:00 PM50 °FCool.18 mph20%29.98 "HgN/A
3:00 PM52 °FCool.20 mph19%29.97 "HgN/A
2:00 PM48 °FCool.2 mph44%29.98 "HgN/A
Weather by CustomWeather, © 2014

See weather overviewHow to use our weather pages